Location: Zagreb
(45.8000°N, 16.0000°E)
Time: 08:52:05
(UTC+02:00)

Courier 1B - Pass Details

Date: 09 August 2020
Orbit: 962 x 1209 km, 28.3° (Epoch: 27 September)

Event Time Altitude Azimuth Distance (km) Brightness Sun altitude
Rises 19:57:24 0° 219° (SW) 3,937 10.9 1.7°
Reaches altitude 10° 20:01:46 10° 196° (SSW) 2,922 10.0 1.0°
Maximum altitude 20:05:12 14° 167° (SSE) 2,583 9.4 0.4°
Drops below altitude 10° 20:08:34 10° 138° (SE) 2,835 9.4 -0.1°
Enters shadow 20:12:20 - 115° (ESE) 3,647 9.8 -0.7°
Sets 20:12:40 0° 114° (ESE) 3,737 - -0.8°
